Flag for Netherlands Weather past 2 weeks in Amersfoort, Netherlands

Now
75 °F

Passing clouds.


Feels Like: 77 °F
Forecast: 59 / 73 °F
Wind: 6 mph from Southeast

Location: Deelen

Current Time: Sep 16, 2014 at 6:36:54 PM

Latest Report: Sep 16, 2014 at 5:55 PM


Visibility: N/A

Pressure: 29.95 "Hg

Humidity: 61%

Dew point: 61 °F

Location of AmersfoortLocation

Historic Weather in Amersfoort — Graph

°F

Amersfoort temperature yesterday

Maximum temperature yesterday: 70 °F (at 12:55 PM)
Minimum temperature yesterday: 52 °F (at 1:25 AM)
Average temperature yesterday: 62 °F

Past Weeks' High & Low Weather Summary

 TemperatureHumidityPressure
High75 °F (Sep 16, 1:55 PM)100% (Sep 1, 10:55 PM)30.27 "Hg (Sep 1, 10:55 PM)
Low45 °F (Sep 12, 6:25 AM)43% (Sep 8, 4:55 PM)29.89 "Hg (Sep 6, 4:25 AM)
Average61 °F84%30.09 "Hg
* Reported Sep 1 5:25 PM — Sep 16 5:25 PM, Amersfoort, Weather by CustomWeather, © 2014

Note: Actual official high and low records may vary slightly from our data, if they occured in-between our weather recording intervals... More about our weather records

Advertising

Amersfoort weather history for previous 24 hours

 ConditionsComfort  
Time TempWeatherWind HumidityBarometerVisibility
5:25 PM
Sep 16
75 °FMild.5 mph61%29.95 "HgN/A
4:55 PM73 °FBroken clouds.9 mph61%29.95 "HgN/A
4:25 PM75 °FPassing clouds.9 mph57%29.95 "HgN/A
3:55 PM75 °FPartly sunny.7 mph57%29.95 "HgN/A
3:25 PM75 °FMild.7 mph57%29.95 "HgN/A
2:55 PM75 °FScattered clouds.8 mph57%29.98 "HgN/A
2:25 PM73 °FBroken clouds.7 mph61%29.98 "HgN/A
1:55 PM75 °FBroken clouds.8 mph54%29.98 "HgN/A
1:25 PM73 °FPassing clouds.6 mph61%29.98 "HgN/A
12:55 PM73 °FScattered clouds.8 mph65%29.98 "HgN/A
12:25 PM73 °FMild.5 mph65%29.98 "HgN/A
11:55 AM73 °FPassing clouds.2 mph69%29.98 "HgN/A
11:25 AM72 °FMild.3 mph73%30.01 "HgN/A
10:55 AM70 °FFog.2 mph73%30.01 "Hg4 mi
10:25 AM68 °FFog.3 mph83%30.01 "Hg3 mi
9:55 AM64 °FFog.2 mph88%30.01 "Hg2 mi
9:25 AM63 °FFog.5 mph94%30.01 "Hg2 mi
8:55 AM63 °FFog.3 mph94%30.01 "Hg2 mi
8:25 AM61 °FFog.2 mph100%30.01 "Hg1 mi
7:55 AM61 °FFog.1 mph100%30.01 "Hg1 mi
7:25 AM61 °FFog.2 mph100%30.01 "Hg1 mi
6:55 AM61 °FFog.2 mph100%29.98 "Hg1 mi
6:25 AM61 °FFog.2 mph100%30.01 "Hg1 mi
5:55 AM61 °FFog.2 mph94%29.98 "Hg1 mi
5:25 AM61 °FFog.1 mph94%30.01 "Hg1 mi
4:55 AM61 °FFog.1 mph94%29.98 "Hg1 mi
4:25 AM61 °FFog.2 mph94%30.01 "Hg1 mi
3:55 AM61 °FFog.2 mph94%30.01 "Hg1 mi
3:25 AM61 °FFog.2 mph100%30.01 "Hg2 mi
2:55 AM63 °FFog.1 mph94%30.01 "Hg2 mi
2:25 AM63 °FFog.5 mph94%30.01 "Hg2 mi
1:55 AM63 °FFog.5 mph94%30.01 "Hg2 mi
1:25 AM63 °FFog.5 mph94%30.01 "Hg2 mi
12:55 AM63 °FFog.3 mph94%30.01 "Hg2 mi
12:25 AM63 °FFog.5 mph94%30.01 "Hg2 mi
11:55 PM
Sep 15
64 °FFog.5 mph88%30.01 "Hg2 mi
11:25 PM63 °FFog.3 mph94%30.01 "Hg2 mi
10:55 PM63 °FFog.5 mph94%30.01 "Hg3 mi
10:25 PM64 °FFog.7 mph88%30.01 "Hg4 mi
9:55 PM64 °FFog.7 mph88%30.01 "Hg4 mi
9:25 PM64 °FFog.5 mph88%30.01 "Hg3 mi
8:55 PM64 °FFog.5 mph88%30.01 "Hg4 mi
8:25 PM64 °FFog.5 mph88%30.01 "Hg4 mi
7:55 PM64 °FFog.3 mph88%30.01 "Hg5 mi
7:25 PM66 °FFog.3 mph83%30.01 "Hg6 mi
6:55 PM66 °FMostly cloudy.7 mph83%30.01 "HgN/A
6:25 PM66 °FPartly sunny.7 mph83%30.01 "HgN/A
Weather by CustomWeather, © 2014

See weather overviewHow to use our weather pages